TimeCDT,TemperatureF,Dew PointF,Humidity,Sea Level PressureIn,VisibilityMPH,Wind Direction,Wind SpeedMPH,Gust SpeedMPH,PrecipitationIn,Events,Conditions,WindDirDegrees,DateUTC
12:53 AM,45.0,36.0,71,30.26,10.0,South,6.9,-,N/A,,Clear,170,2013-05-12 05:53:00
1:53 AM,43.0,36.0,76,30.23,10.0,SSE,6.9,-,N/A,,Clear,150,2013-05-12 06:53:00
2:53 AM,44.1,35.1,71,30.23,10.0,South,5.8,-,N/A,,Clear,180,2013-05-12 07:53:00
3:53 AM,43.0,36.0,76,30.22,10.0,SSE,6.9,-,N/A,,Clear,150,2013-05-12 08:53:00
4:53 AM,44.1,35.1,71,30.22,10.0,South,4.6,-,N/A,,Clear,190,2013-05-12 09:53:00
5:53 AM,41.0,36.0,82,30.23,-9999.0,ESE,5.8,-,N/A,,Mostly Cloudy,110,2013-05-12 10:53:00
6:53 AM,45.0,37.0,74,30.22,-9999.0,ESE,6.9,-,N/A,,Mostly Cloudy,110,2013-05-12 11:53:00
7:53 AM,46.9,37.9,71,30.25,-9999.0,East,9.2,-,N/A,,Scattered Clouds,90,2013-05-12 12:53:00
8:53 AM,51.1,37.9,61,30.22,-9999.0,SE,16.1,-,N/A,,Clear,130,2013-05-12 13:53:00
9:53 AM,55.9,39.9,55,30.20,10.0,SSE,18.4,-,0.00,Rain,Light Rain,150,2013-05-12 14:53:00
10:53 AM,57.9,37.0,46,30.18,10.0,SE,23.0,-,0.00,,Partly Cloudy,140,2013-05-12 15:53:00
11:53 AM,61.0,39.0,44,30.17,10.0,SE,19.6,-,N/A,,Clear,140,2013-05-12 16:53:00
12:53 PM,66.0,42.1,42,30.14,10.0,SSE,20.7,28.8,N/A,,Clear,150,2013-05-12 17:53:00
1:53 PM,70.0,44.1,39,30.10,10.0,South,19.6,28.8,N/A,,Scattered Clouds,170,2013-05-12 18:53:00
2:53 PM,72.0,46.0,40,30.08,10.0,SSE,24.2,29.9,N/A,,Clear,160,2013-05-12 19:53:00
3:53 PM,73.0,46.0,38,30.05,10.0,SSE,17.3,26.5,N/A,,Clear,160,2013-05-12 20:53:00
4:53 PM,75.0,48.0,38,30.03,10.0,SSE,19.6,27.6,N/A,,Clear,160,2013-05-12 21:53:00
5:53 PM,73.0,48.0,41,30.04,10.0,SE,17.3,23.0,N/A,,Clear,140,2013-05-12 22:53:00
6:53 PM,71.1,48.9,45,30.04,10.0,SE,13.8,-,N/A,,Clear,140,2013-05-12 23:53:00
7:53 PM,66.9,48.0,51,30.04,10.0,ESE,12.7,-,N/A,,Clear,120,2013-05-13 00:53:00
8:53 PM,59.0,48.0,67,30.05,10.0,East,9.2,-,N/A,,Clear,80,2013-05-13 01:53:00
9:53 PM,59.0,46.9,64,30.06,10.0,East,11.5,-,N/A,,Clear,100,2013-05-13 02:53:00
10:53 PM,55.9,46.9,72,30.07,10.0,ESE,10.4,-,N/A,,Clear,110,2013-05-13 03:53:00
11:53 PM,55.0,46.0,72,30.05,10.0,SE,16.1,-,N/A,,Clear,130,2013-05-13 04:53:00